GW3945 Weather Reports


Display with metric or nautical units.
time (UTC)temp
F
wind
direction
speed
MPH
gust
MPH
rain 1hr
in
rain 24hr
in
rain mn
in
humidity
%
barometer
mb
20260509103228 54 173 0.0 0.0 0.00 0.00 0.00 90 1007.6
20260509102726 54 174 0.0 0.0 0.00 0.00 0.00 89 1007.3
20260509102223 55 173 0.0 0.0 0.00 0.00 0.00 89 1007.4
20260509101719 55 173 0.0 0.0 0.00 0.00 0.00 88 1007.5
20260509101215 55 175 0.0 0.0 0.00 0.00 0.00 88 1007.8
20260509100713 54 172 0.0 0.0 0.00 0.00 0.00 89 1007.7
20260509100210 55 173 0.0 0.0 0.00 0.00 0.00 89 1007.4
20260509095707 55 174 0.0 0.0 0.00 0.00 0.00 88 1007.7
20260509095204 55 174 0.0 0.0 0.00 0.00 0.00 87 1007.9
20260509094701 55 175 0.0 0.0 0.00 0.00 0.00 87 1008.1
20260509094158 55 173 0.0 0.0 0.00 0.00 0.00 87 1007.9
20260509093656 56 173 0.0 0.0 0.00 0.00 0.00 86 1007.9
20260509093153 56 172 0.0 0.0 0.00 0.00 0.00 86 1008.3
20260509092651 56 182 0.0 0.0 0.00 0.00 0.00 86 1008.1
20260509092149 56 174 0.0 0.0 0.00 0.00 0.00 86 1008.3
20260509091647 56 172 0.0 0.0 0.00 0.00 0.00 85 1008.3
20260509091143 56 173 0.0 0.0 0.00 0.00 0.00 85 1008.0
20260509090641 56 172 0.0 0.0 0.00 0.00 0.00 85 1008.3
20260509090138 56 176 0.0 0.0 0.00 0.00 0.00 85 1008.1
20260509085635 56 176 0.0 0.0 0.00 0.00 0.00 85 1008.0
20260509085131 56 177 0.0 0.0 0.00 0.00 0.00 85 1008.3
20260509084629 56 178 0.0 0.0 0.00 0.00 0.00 85 1008.1
20260509084126 56 177 0.0 0.0 0.00 0.00 0.00 84 1007.8
20260509083623 56 177 0.0 0.0 0.00 0.00 0.00 84 1008.3
20260509083119 56 176 0.0 0.0 0.00 0.00 0.00 84 1008.5
20260509082617 56 181 0.0 0.0 0.00 0.00 0.00 84 1008.3
20260509082113 56 187 0.0 0.0 0.00 0.00 0.00 84 1008.5
20260509081610 56 178 0.0 0.0 0.00 0.00 0.00 84 1008.2
20260509081107 56 178 0.0 0.0 0.00 0.00 0.00 84 1008.3
20260509080606 56 199 0.0 0.0 0.00 0.00 0.00 84 1008.4
20260509080103 56 175 0.0 0.0 0.00 0.00 0.00 84 1008.2
20260509075601 57 175 0.0 0.0 0.00 0.00 0.00 84 1008.0
20260509075059 56 180 0.0 0.0 0.00 0.00 0.00 82 1007.9
20260509074555 56 179 0.0 0.0 0.00 0.00 0.00 82 1008.1
20260509074051 56 179 0.0 0.0 0.00 0.00 0.00 82 1008.3
20260509073548 57 179 0.0 0.0 0.00 0.00 0.00 82 1008.2
20260509073045 57 179 0.0 0.0 0.00 0.00 0.00 81 1008.5
20260509072541 57 184 0.0 0.0 0.00 0.00 0.00 81 1008.1
20260509072038 57 179 0.0 0.0 0.00 0.00 0.00 81 1008.1
20260509071535 57 176 0.0 0.0 0.00 0.00 0.00 80 1008.1
20260509071033 57 176 0.0 0.0 0.00 0.00 0.00 80 1008.1
20260509070530 57 176 0.0 0.0 0.00 0.00 0.00 80 1008.0
20260509070026 57 175 0.0 0.0 0.00 0.00 0.00 79 1008.0
20260509065521 57 174 0.0 0.0 0.00 0.00 0.00 79 1008.4
20260509065018 57 174 0.0 0.0 0.00 0.00 0.00 78 1008.5
20260509064515 57 174 0.0 0.0 0.00 0.00 0.00 78 1008.6
20260509064013 58 173 0.0 0.0 0.00 0.00 0.00 77 1008.3
20260509063508 58 175 0.0 0.0 0.00 0.00 0.00 77 1008.5
20260509063006 58 169 0.0 0.0 0.00 0.00 0.00 77 1008.4
20260509062503 57 173 0.0 0.0 0.00 0.00 0.00 77 1008.9
20260509062001 58 172 0.0 0.0 0.00 0.00 0.00 76 1008.6
20260509061457 58 162 0.0 0.0 0.00 0.00 0.00 75 1008.9
20260509060954 58 176 0.0 0.0 0.00 0.00 0.00 76 1008.9
20260509060452 58 161 2.0 2.0 0.00 0.00 0.00 75 1008.8
20260509055947 58 172 0.0 0.0 0.00 0.00 0.00 74 1009.1
20260509055442 58 172 0.0 0.0 0.00 0.00 0.00 74 1009.1
20260509054939 58 176 0.0 0.0 0.00 0.00 0.00 74 1009.0
20260509054436 58 174 0.0 0.0 0.00 0.00 0.00 74 1009.0
20260509053934 58 177 0.0 0.0 0.00 0.00 0.00 73 1009.1
20260509053432 58 177 0.0 0.0 0.00 0.00 0.00 73 1009.3
20260509052929 58 177 0.0 0.0 0.00 0.00 0.00 72 1009.5
20260509052426 58 177 0.0 0.0 0.00 0.00 0.00 71 1009.3
20260509051925 59 177 0.0 0.0 0.00 0.00 0.00 70 1009.2
20260509051422 59 176 0.0 0.0 0.00 0.00 0.00 70 1009.3
20260509050919 59 172 0.0 0.0 0.00 0.00 0.00 70 1009.1
20260509050415 58 175 0.0 0.0 0.00 0.00 0.00 70 1009.1
20260509045912 59 170 0.0 0.0 0.00 0.00 0.00 69 1009.2
20260509045409 59 172 0.0 0.0 0.00 0.00 0.00 67 1009.2
20260509044906 59 180 0.0 0.0 0.00 0.00 0.00 67 1009.2
20260509044404 59 178 0.0 0.0 0.00 0.00 0.00 67 1009.2
20260509043901 59 178 0.0 0.0 0.00 0.00 0.00 66 1009.0
20260509043356 60 178 0.0 0.0 0.00 0.00 0.00 65 1009.1
20260509042852 60 178 0.0 0.0 0.00 0.00 0.00 65 1009.1
20260509042349 60 178 0.0 0.0 0.00 0.00 0.00 64 1009.1
20260509041846 60 178 0.0 0.0 0.00 0.00 0.00 63 1009.1
20260509041343 61 178 0.0 0.0 0.00 0.00 0.00 63 1009.0
20260509040841 61 178 0.0 0.0 0.00 0.00 0.00 62 1009.3
20260509040339 61 177 0.0 0.0 0.00 0.00 0.00 62 1009.1
20260509035835 61 175 0.0 0.0 0.00 0.00 0.00 62 1009.1
20260509035333 61 176 0.0 0.0 0.00 0.00 0.00 61 1009.0
20260509034828 61 180 0.0 0.0 0.00 0.00 0.00 61 1009.4
20260509034326 61 176 0.0 0.0 0.00 0.00 0.00 60 1009.2
20260509033823 62 176 0.0 0.0 0.00 0.00 0.00 60 1009.1
20260509033320 62 180 0.0 0.0 0.00 0.00 0.00 60 1009.4
20260509032817 62 171 0.0 0.0 0.00 0.00 0.00 59 1009.3
20260509032314 62 173 0.0 0.0 0.00 0.00 0.00 58 1009.5
20260509031812 62 174 0.0 0.0 0.00 0.00 0.00 58 1009.5
20260509031309 62 170 0.0 0.0 0.00 0.00 0.00 58 1009.3
20260509030807 62 170 0.0 0.0 0.00 0.00 0.00 57 1009.2
20260509030305 62 173 0.0 0.0 0.00 0.00 0.00 58 1009.3
20260509025801 62 167 0.0 0.0 0.00 0.00 0.00 57 1009.2
20260509025256 62 169 0.0 0.0 0.00 0.00 0.00 57 1009.4
20260509024752 63 177 0.0 0.0 0.00 0.00 0.00 57 1009.1
20260509024248 62 170 0.0 0.0 0.00 0.00 0.00 57 1009.2
20260509023746 62 163 0.0 0.0 0.00 0.00 0.00 56 1009.4
20260509023243 62 171 0.0 0.0 0.00 0.00 0.00 56 1009.1
20260509022738 63 169 0.0 0.0 0.00 0.00 0.00 55 1009.4
20260509022237 63 169 0.0 0.0 0.00 0.00 0.00 55 1009.0
20260509021733 62 173 0.0 0.0 0.00 0.00 0.00 54 1009.2
20260509021231 62 166 0.0 0.0 0.00 0.00 0.00 55 1009.3
20260509020729 61 169 0.0 0.0 0.00 0.00 0.00 57 1009.3
20260509020226 62 168 0.0 0.0 0.00 0.00 0.00 65 1009.3
20260509015724 63 168 0.0 0.0 0.00 0.00 0.00 56 1009.1
20260509015222 63 168 0.0 0.0 0.00 0.00 0.00 56 1009.1
20260509014718 64 168 0.0 0.0 0.00 0.00 0.00 50 1009.3
20260509014215 63 171 0.0 0.0 0.00 0.00 0.00 51 1009.1
20260509013711 63 174 0.0 0.0 0.00 0.00 0.00 53 1009.2
20260509013207 62 175 0.0 0.0 0.00 0.00 0.00 55 1009.1
20260509012704 62 176 0.0 0.0 0.00 0.00 0.00 58 1009.1
20260509012200 63 179 0.0 0.0 0.00 0.00 0.00 53 1009.0
20260509011658 63 180 0.0 0.0 0.00 0.00 0.00 52 1009.1
20260509011155 64 180 0.0 0.0 0.00 0.00 0.00 60 1009.1
20260509010653 64 180 0.0 0.0 0.00 0.00 0.00 52 1009.2
20260509010149 64 180 0.0 0.0 0.00 0.00 0.00 58 1009.0
20260509005647 65 180 0.0 0.0 0.00 0.00 0.00 55 1009.1
20260509005143 66 180 0.0 0.0 0.00 0.00 0.00 47 1009.1
20260509004639 66 180 0.0 0.0 0.00 0.00 0.00 46 1009.2
20260509004136 66 180 0.0 0.0 0.00 0.00 0.00 48 1009.0
20260509003635 66 180 0.0 0.0 0.00 0.00 0.00 47 1009.3
20260509003132 66 180 0.0 0.0 0.00 0.00 0.00 46 1009.3
20260509002629 67 181 0.0 0.0 0.00 0.00 0.00 46 1009.4
20260509002126 67 182 0.0 0.0 0.00 0.00 0.00 47 1009.4
20260509001624 67 186 0.0 0.0 0.00 0.00 0.00 49 1009.4
20260509001119 68 177 0.0 0.0 0.00 0.00 0.00 43 1009.4
20260509000618 68 177 0.0 0.0 0.00 0.00 0.00 43 1009.4
20260509000114 68 176 0.0 0.0 0.00 0.00 0.00 42 1009.5
20260508235612 69 176 0.0 0.0 0.00 0.00 0.00 42 1009.4
20260508235108 69 176 0.0 0.0 0.00 0.00 0.00 41 1009.3
20260508234605 69 178 0.0 0.0 0.00 0.00 0.00 41 1009.5
20260508234101 69 171 0.0 0.0 0.00 0.00 0.00 41 1009.5
20260508233601 69 171 0.0 0.0 0.00 0.00 0.00 40 1009.5
20260508233058 69 164 0.0 0.0 0.00 0.00 0.00 40 1009.5
20260508232555 69 165 0.0 0.0 0.00 0.00 0.00 40 1009.6
20260508232052 70 165 0.0 0.0 0.00 0.00 0.00 39 1009.6
20260508231550 70 165 0.0 0.0 0.00 0.00 0.00 39 1009.6
20260508231046 70 172 0.0 0.0 0.00 0.00 0.00 38 1009.4
20260508230543 70 172 0.0 0.0 0.00 0.00 0.00 39 1009.6
20260508230039 70 170 0.0 0.0 0.00 0.00 0.00 39 1009.8
20260508225537 70 157 0.0 0.0 0.00 0.00 0.00 38 1009.7
20260508225033 70 160 0.0 0.0 0.00 0.00 0.00 38 1009.9
20260508224532 71 193 0.0 0.0 0.00 0.00 0.00 39 1009.8
20260508224029 71 173 0.0 0.0 0.00 0.00 0.00 37 1009.8
20260508223527 70 167 0.0 0.0 0.00 0.00 0.00 37 1009.8
20260508223023 70 167 0.0 0.0 0.00 0.00 0.00 37 1009.8
20260508222521 70 183 0.0 0.0 0.00 0.00 0.00 38 1009.9
20260508222018 70 162 0.0 0.0 0.00 0.00 0.00 38 1009.6
20260508221514 70 141 0.0 0.0 0.00 0.00 0.00 37 1009.9
20260508221010 71 178 0.0 0.0 0.00 0.00 0.00 37 1010.1
20260508220507 71 167 0.0 0.0 0.00 0.00 0.00 37 1010.0
20260508220003 71 167 0.0 0.0 0.00 0.00 0.00 37 1010.1
20260508215500 73 178 0.0 0.0 0.00 0.00 0.00 37 1010.0
20260508214956 73 183 0.0 0.0 0.00 0.00 0.00 36 1009.9
20260508214454 71 193 0.0 0.0 0.00 0.00 0.00 39 1009.8
20260508213950 71 148 0.0 0.0 0.00 0.00 0.00 37 1009.8
20260508213448 71 140 0.0 0.0 0.00 0.00 0.00 37 1010.1
20260508212943 71 175 0.0 0.0 0.00 0.00 0.00 37 1010.0
20260508212440 71 138 0.0 0.0 0.00 0.00 0.00 37 1010.1
20260508211935 71 171 0.0 0.0 0.00 0.00 0.00 38 1010.0
20260508211431 71 158 0.0 0.0 0.00 0.00 0.00 40 1010.0
20260508210929 70 173 0.0 0.0 0.00 0.00 0.00 38 1010.2
20260508210425 70 91 0.0 0.0 0.00 0.00 0.00 38 1010.3
20260508205922 70 167 0.0 0.0 0.00 0.00 0.00 39 1010.4
20260508205419 71 158 2.0 2.0 0.00 0.00 0.00 40 1010.4
20260508204915 71 168 0.0 0.0 0.00 0.00 0.00 38 1010.5
20260508204413 71 156 0.0 0.0 0.00 0.00 0.00 40 1010.4
20260508203908 71 209 0.0 0.0 0.00 0.00 0.00 37 1010.7
20260508203404 69 161 0.0 0.0 0.00 0.00 0.00 38 1010.7
20260508202900 70 160 0.0 0.0 0.00 0.00 0.00 40 1010.6
20260508202358 69 185 0.0 0.0 0.00 0.00 0.00 38 1010.7
20260508201855 69 175 0.0 0.0 0.00 0.00 0.00 38 1010.8
20260508201351 70 149 0.0 0.0 0.00 0.00 0.00 38 1010.7
20260508200848 70 193 0.0 0.0 0.00 0.00 0.00 38 1010.9
20260508200345 69 231 1.0 3.0 0.00 0.00 0.00 40 1010.8
20260508195840 69 160 0.0 0.0 0.00 0.00 0.00 40 1011.1
20260508195337 68 175 0.0 0.0 0.00 0.00 0.00 39 1011.0
20260508194833 68 172 0.0 0.0 0.00 0.00 0.00 42 1011.3
20260508194331 68 176 1.0 2.0 0.00 0.00 0.00 39 1011.1
20260508193827 68 149 0.0 0.0 0.00 0.00 0.00 38 1011.4
20260508193324 68 179 0.0 0.0 0.00 0.00 0.00 39 1011.3
20260508192821 68 138 0.0 0.0 0.00 0.00 0.00 37 1011.6
20260508192318 68 175 0.0 0.0 0.00 0.00 0.00 36 1011.8
20260508191815 68 196 0.0 0.0 0.00 0.00 0.00 37 1011.7
20260508191312 68 166 0.0 0.0 0.00 0.00 0.00 36 1011.9
20260508190809 68 161 0.0 0.0 0.00 0.00 0.00 37 1011.9
20260508190306 68 164 0.0 0.0 0.00 0.00 0.00 37 1012.1
20260508185802 68 176 0.0 0.0 0.00 0.00 0.00 38 1012.0
20260508185300 67 167 0.0 0.0 0.00 0.00 0.00 36 1012.0
20260508184756 68 147 0.0 0.0 0.00 0.00 0.00 36 1012.2
20260508184253 68 149 0.0 0.0 0.00 0.00 0.00 33 1012.2
20260508183750 68 181 0.0 0.0 0.00 0.00 0.00 37 1012.2
20260508183246 68 174 0.0 0.0 0.00 0.00 0.00 42 1012.5
20260508182743 67 162 3.0 3.0 0.00 0.00 0.00 41 1012.9
20260508182239 68 147 0.0 0.0 0.00 0.00 0.00 40 1012.9
20260508181735 68 156 1.0 2.0 0.00 0.00 0.00 42 1013.3
20260508181232 67 190 0.0 0.0 0.00 0.00 0.00 43 1013.0
20260508180729 67 142 0.0 0.0 0.00 0.00 0.00 42 1012.8
20260508180226 67 197 0.0 0.0 0.00 0.00 0.00 40 1012.9
20260508175722 67 155 0.0 0.0 0.00 0.00 0.00 41 1012.9
20260508175219 67 156 0.0 0.0 0.00 0.00 0.00 42 1013.2
20260508174717 66 162 0.0 0.0 0.00 0.00 0.00 42 1012.9
20260508174214 66 151 0.0 0.0 0.00 0.00 0.00 41 1013.3
20260508173710 66 131 0.0 0.0 0.00 0.00 0.00 42 1013.3
20260508173206 66 156 0.0 1.0 0.00 0.00 0.00 40 1013.6
20260508172704 66 142 0.0 0.0 0.00 0.00 0.00 43 1013.4
20260508172200 65 165 0.0 0.0 0.00 0.00 0.00 42 1013.8
20260508171657 65 176 0.0 0.0 0.00 0.00 0.00 41 1013.6
20260508171153 65 162 0.0 0.0 0.00 0.00 0.00 41 1014.0
20260508170650 65 164 0.0 0.0 0.00 0.00 0.00 46 1014.0
20260508170148 65 158 0.0 0.0 0.00 0.00 0.00 42 1014.1
20260508165645 65 132 0.0 0.0 0.00 0.00 0.00 45 1014.1
20260508165142 64 172 0.0 0.0 0.00 0.00 0.00 46 1014.3
20260508164638 65 139 0.0 1.0 0.00 0.00 0.00 43 1014.2
20260508164135 64 170 0.0 0.0 0.00 0.00 0.00 46 1014.4
20260508163633 64 161 0.0 0.0 0.00 0.00 0.00 44 1014.5
20260508163130 64 144 0.0 0.0 0.00 0.00 0.00 46 1014.6
20260508162626 64 123 0.0 0.0 0.00 0.00 0.00 46 1014.6
20260508162123 63 166 0.0 0.0 0.00 0.00 0.00 46 1014.7
20260508161620 63 153 0.0 0.0 0.00 0.00 0.00 45 1015.1
20260508161118 63 116 0.0 0.0 0.00 0.00 0.00 44 1014.9
20260508160616 63 138 0.0 0.0 0.00 0.00 0.00 47 1014.8
20260508160113 63 120 0.0 0.0 0.00 0.00 0.00 47 1015.0
20260508155610 64 141 0.0 0.0 0.00 0.00 0.00 48 1015.2
20260508155107 63 167 0.0 0.0 0.00 0.00 0.00 47 1015.2
20260508154604 63 160 0.0 0.0 0.00 0.00 0.00 48 1015.1
20260508154101 63 171 0.0 0.0 0.00 0.00 0.00 51 1015.2
20260508153558 63 139 0.0 0.0 0.00 0.00 0.00 58 1015.4
20260508153054 62 165 0.0 0.0 0.00 0.00 0.00 59 1015.1
20260508152551 62 134 1.0 1.0 0.00 0.00 0.00 55 1015.2
20260508152046 62 140 0.0 0.0 0.00 0.00 0.00 57 1015.4
20260508151543 61 145 0.0 0.0 0.00 0.00 0.00 59 1015.6
20260508151040 60 167 0.0 0.0 0.00 0.00 0.00 57 1015.5
20260508150537 60 146 0.0 0.0 0.00 0.00 0.00 57 1015.5
20260508150033 60 167 0.0 0.0 0.00 0.00 0.00 62 1015.5
20260508145530 60 155 0.0 0.0 0.00 0.00 0.00 66 1015.5
20260508145026 60 170 0.0 0.0 0.00 0.00 0.00 63 1015.7
20260508144524 60 197 0.0 0.0 0.00 0.00 0.00 67 1015.5
20260508144021 59 170 0.0 0.0 0.00 0.00 0.00 63 1015.5
20260508143519 59 163 0.0 0.0 0.00 0.00 0.00 69 1015.6
20260508143015 58 150 0.0 0.0 0.00 0.00 0.00 67 1015.9
20260508142512 58 165 0.0 0.0 0.00 0.00 0.00 67 1015.8
20260508142009 58 176 0.0 0.0 0.00 0.00 0.00 66 1015.9
20260508141505 57 144 0.0 0.0 0.00 0.00 0.00 69 1015.6
20260508141003 57 173 0.0 0.0 0.00 0.00 0.00 66 1015.9
20260508140500 57 167 0.0 0.0 0.00 0.00 0.00 67 1016.0
20260508135955 56 156 0.0 0.0 0.00 0.00 0.00 64 1015.8
20260508135452 56 158 0.0 0.0 0.00 0.00 0.00 66 1016.2
20260508134948 55 144 0.0 0.0 0.00 0.00 0.00 67 1016.0
20260508134445 55 165 0.0 0.0 0.00 0.00 0.00 70 1016.1
20260508133942 55 160 0.0 0.0 0.00 0.00 0.00 73 1016.1
20260508133439 54 166 0.0 0.0 0.00 0.00 0.00 74 1016.1
20260508132936 53 169 0.0 0.0 0.00 0.00 0.00 75 1016.1
20260508132434 53 168 0.0 0.0 0.00 0.00 0.00 80 1016.0
20260508131931 52 167 0.0 0.0 0.00 0.00 0.00 78 1016.0
20260508131426 51 168 0.0 0.0 0.00 0.00 0.00 79 1016.1
20260508130923 51 172 0.0 0.0 0.00 0.00 0.00 83 1016.1
20260508130420 50 174 0.0 0.0 0.00 0.00 0.00 85 1016.1
20260508125916 50 175 0.0 0.0 0.00 0.00 0.00 87 1015.9
20260508125412 49 187 0.0 0.0 0.00 0.00 0.00 86 1015.8
20260508124910 49 187 0.0 0.0 0.00 0.00 0.00 89 1015.9
20260508124407 48 187 0.0 0.0 0.00 0.00 0.00 88 1016.1
20260508123905 47 187 0.0 0.0 0.00 0.00 0.00 89 1015.8
20260508123403 47 187 0.0 0.0 0.00 0.00 0.00 91 1015.7
20260508122859 46 187 0.0 0.0 0.00 0.00 0.00 92 1015.7
20260508122356 46 187 0.0 0.0 0.00 0.00 0.00 92 1015.6
20260508121853 45 187 0.0 0.0 0.00 0.00 0.00 93 1015.6
20260508121352 45 188 0.0 0.0 0.00 0.00 0.00 93 1015.5
20260508120849 44 189 0.0 0.0 0.00 0.00 0.00 94 1015.5
20260508120347 43 189 0.0 0.0 0.00 0.00 0.00 93 1015.7
20260508115844 43 189 0.0 0.0 0.00 0.00 0.00 93 1015.6
20260508115341 42 189 0.0 0.0 0.00 0.00 0.00 93 1015.4
20260508114838 42 189 0.0 0.0 0.00 0.00 0.00 93 1015.2
20260508114335 42 184 0.0 0.0 0.00 0.00 0.00 93 1015.2
20260508113832 42 184 0.0 0.0 0.00 0.00 0.00 93 1015.4
20260508113330 42 184 0.0 0.0 0.00 0.00 0.00 92 1015.2
20260508112826 42 184 0.0 0.0 0.00 0.00 0.00 92 1014.9
20260508112323 42 184 0.0 0.0 0.00 0.00 0.00 92 1015.2
20260508111820 41 186 0.0 0.0 0.00 0.00 0.00 93 1014.8
20260508111317 41 184 0.0 0.0 0.00 0.00 0.00 92 1015.0
20260508110814 42 184 0.0 0.0 0.00 0.00 0.00 92 1014.6
20260508110312 42 184 0.0 0.0 0.00 0.00 0.00 92 1014.8
20260508105811 42 184 0.0 0.0 0.00 0.00 0.00 92 1014.8
20260508105308 42 184 0.0 0.0 0.00 0.00 0.00 92 1014.6
20260508104805 42 184 0.0 0.0 0.00 0.00 0.00 92 1014.9
20260508104302 42 184 0.0 0.0 0.00 0.00 0.00 93 1014.6
20260508103759 42 184 0.0 0.0 0.00 0.00 0.00 93 1014.6